Zurück zum Katalog

STARLINK-35303

AktivKommunikationVLEO
NORAD 65860·PAYLOAD·🇺🇸 United States

Gestartet Oct 3, 2025 von Vandenberg Space Force Base

Loading…

Nächste Überflüge (nächste 24 Stunden)

TLE

AktuellSource: CelesTrak SupGP

Epoche: Sep 14, 2026, 15:47 UTC

1 65860C 25223G   26257.65812500  .00028499  00000+0  84195-3 0  2576
2 65860  53.1575 132.9961 0000945  93.9157 355.0955 15.34379367    17

Verfolge STARLINK-35303 in Echtzeit mit AllMySat

Download on the App Store